Showing default

CYGFM05, 41884

Orbit data source: Space-Track

CYGFM05, 41884 is an American payload satellite in LEO that was launched on Thu, 15 Dec 2016 UTC via a PEGASUS XL launch vehicle from the Pegasus Launch, Eastern Range Air Space (ERAS). Payload-class satellites include a variety of spacecraft equipped with specific instruments for various scientific and technological missions. These include communications satellites like Starlink; space stations such as the ISS; scientific satellites like the Hubble; Earth observation satellites from companies like Planet Labs, Umbra, and HawkEye 360; GPS; miniature CubeSats for education and research; and military/defense satellites.

Loading next visibility...
Identifier
41884, 2016-078A
Orbit
LEO
Last TLE update
6 hours ago
Origin
Manufacturer
SST-US
Mission
Extended mission Civil Science
Bus & Motor
CYGNSS, Unknown motor
Mass
29 kg wet, 29 kg dry
Launch date (UTC)
2016-12-15 (9 years ago)
Launch vehicle
PEGASUS XL
Launch site
Pegasus Launch, Eastern Range Air Space (ERAS)
Object type
Payload
Rocket body
Debris
Shape & HBR
Half Hex Cyl + 2 Pan, 1.7 m
Radar Cross Section
0.450 m², Medium (>0.1 m² and < 1m²)

Expand to show TLE details & history

TLE from 6 hours ago
0 CYGFM05
1 41884U 16078A   25187.60441043  .00011139  00000-0  26111-3 0  9991
2 41884  34.9618   0.7824 0008532 138.0808 222.0566 15.41205558475156
Epoch: 2025-07-06T14:30Z
TLE epoch observation values (Epoch: 2025-07-06T14:30:21.061Z)
Latitude
-0°
Longitude
-141.63107°
Altitude
445.767 km
Speed
7.645 km/s
True Right ascension
00h 03m 07s
True Declination
0° 00' 00"
Sunlit
Object was in daylight at epoch
Visualization orbit readout
Latitude
-18.08561°
Longitude
64.54022°
Altitude
443.703 km
Speed
7.648 km/s
Apparent Right ascension
16h 22m 11s
Apparent Declination
-38° 15' 36"
Sunlit
Object is in daylight
Visualization observer readout
Local Sidereal Time
08:04:56
Azimuth
106.404° ESE
Elevation
-47.461°
Doppler factor
1
Orbital elements
Apogee altitude
451.654 km
Perigee altitude
440.01 km
Semi-major axis
6,823.969 km
Eccentricity
0.00085
Inclination
34.9618°
RAAN
0.7824°
Arg. of periapsis
138.0808°
True anomaly
Unknown
Mean anomaly
222.0566°
Eccentric anomaly
Unknown
Mean motion
3.85024 °/min
Orbital period
93.5 mins
BSTAR
0.00026111
Loading maneuver chart data...
Loading SW <> Apogee altitude chart data...
Loading historical data...
Loading historical data...
Loading historical data...
Loading historical data...
Loading historical data...
Loading historical data...
Loading historical data...

CYGFM05 Visibility forecast

Observer location: undefined°, undefined°

Span
Click to sort rows by Start time (UTC) header in descending order
Start Az.
Max El. time (UTC)
Max El. Az.
Max El.
End time (UTC)
End Az.
5 mins2025-07-07 15:38:11.615Z211.196° SW2025-07-07 15:40:11.615Z173.11° S20.088°2025-07-07 15:43:11.615Z112.53° SE
4 mins2025-07-07 17:17:11.615Z227.185° WSW2025-07-07 17:19:11.615Z159.622° S28.929°2025-07-07 17:21:11.615Z116.959° SE
4 mins2025-07-07 18:55:11.615Z237.063° WSW2025-07-07 18:57:11.615Z185.894° SSW23.458°2025-07-07 18:59:11.615Z142.533° SSE
|